Location: Malanoce
(44.2500°N, 7.4667°E)
Time: 05:02:21
(UTC+00:00)

Cosmos 371 Rocket - Pass Details

Date: 17 November 2025
Orbit: 674 x 690 km, 74.0° (Epoch: 09 December)

Event Time Altitude Azimuth Distance (km) Brightness Sun altitude
Rises 18:04:22 0° 199° (SSW) 3,027 6.9 -21.9°
Reaches altitude 10° 18:06:39 10° 199° (SSW) 2,119 6.1 -22.3°
Maximum altitude 18:11:26 90° 113° (ESE) 691 3.1 -23.2°
Enters shadow 18:12:47 48° 21° (NNE) 894 3.6 -23.4°
